Regional Weather Roundup
Issued by NWS Sioux Falls, SD

Home | Current Version | Previous Version | Graphics & Text | Print | Product List | Glossary Off
Versions: 1 2 3 4 5 6 7 8 9 10 11 12 13 14 15 16 17 18 19 20 21 22 23 24 25 26 27 28 29 30 31 32 33 34 35 36 37 38 39 40 41 42 43 44 45 46 47 48 49 50

000
ASUS43 KFSD 181002
RWRFSD

WEATHER ROUNDUP FOR SE SOUTH DAKOTA/SW MINNESOTA/NW IOWA
NATIONAL WEATHER SERVICE SIOUX FALLS SD
500 AM CDT FRI APR 18 2014

NOTE: "FAIR" INDICATES FEW OR NO CLOUDS BELOW 12,000 FEET WITH NO
SIGNIFICANT WEATHER AND OR OBSTRUCTIONS TO VISIBILITY.


SDZ038>040-050-052>070-181100-
SOUTHEAST SOUTH DAKOTA

CITY           SKY/WX    TMP DP  RH WIND       PRES   REMARKS
CHAMBERLAIN      N/A     36  25  64 SE16      30.05F
HURON          PTCLDY    34  27  75 SE15      30.14F WCI  24
MADISON        PTSUNNY   32  32 100 SE13      30.21F WCI  22
MITCHELL       PTCLDY    34  28  79 SE17      30.17F WCI  23
SIOUX FALLS    PTCLDY    33  28  81 SE12      30.23F WCI  24
WINNER         CLOUDY    44  29  55 S22G31    29.99F
YANKTON        CLEAR     30  25  80 E7        30.21S WCI  23
$$

MNZ071-072-080-081-089-090-097-098-181100-
SOUTHWEST MINNESOTA

CITY           SKY/WX    TMP DP  RH WIND       PRES   REMARKS
FAIRMONT       CLOUDY    30  28  93 CALM      30.32S
JACKSON        CLOUDY    32  30  93 E5        30.28S FOG     WCI  27
LUVERNE        PTCLDY    32  30  93 SE5       30.26S WCI  27
MARSHALL       CLOUDY    34  25  69 S9        30.27S WCI  26
MONTEVIDEO     CLOUDY    30  27  86 S3        30.29S
PIPESTONE      CLOUDY    32  28  86 SE9       30.23S WCI  24
REDWOOD FALLS  CLOUDY    30  27  88 E3        30.29F
TRACY          CLOUDY    32  29  88 CALM      30.28S
WINDOM         MOCLDY    30  28  93 E3        30.28F
WORTHINGTON    CLOUDY    30  25  80 E5        30.28S WCI  25
$$

IAZ001>003-012>014-020>022-031-032-NEZ013-014-SDZ071-181100-
NORTHWEST IOWA

CITY           SKY/WX    TMP DP  RH WIND       PRES   REMARKS
CHEROKEE       CLEAR     29  26  89 CALM      30.27S
DENISON        MOCLDY    34  30  86 E6        30.26S WCI  29
ESTHERVILLE    CLOUDY    30  30 100 SE6       30.28S FOG     WCI  24
SHELDON        CLEAR     30  28  93 E8        30.25F WCI  23
SIOUX CITY     PTCLDY    30  26  85 SE8       30.25S WCI  22
SPENCER        MOCLDY    29  26  89 SE6       30.28S WCI  23
STORM LAKE     CLEAR     28  28 100 SE9       30.28R FOG     WCI  20
$$

ABBREVIATIONS USED IN REMARKS
   TC - TEMPERATURE IN CELSIUS
  WCI - WIND CHILL INDEX
   HX - HEAT INDEX
  VSB - VISIBILITY




USA.gov is the U.S. government's official web portal to all federal, state and local government web resources and services.